sat.trackr.live / text

‹ back to catalog

STARLINK-2111

NORAD 47390 · 2021-005AT

PAYLOAD ACTIVE UNKNOWN

§ Identity

Operator
Country
US
Launch date
2021-01-20
Launch site
AFETR
Launch vehicle
Mass (kg)
RCS (m²)

Purposes: comms

External: N2YO · Heavens-Above · Gunter

§ Orbital elements

Epoch: 2026-05-24T23:14:55.064832Z

Period
94.01 min
Inclination
53.1610°
Eccentricity
0.0001157
Mean motion
15.31709339 rev/d
Perigee alt
469.9 km
Apogee alt
471.5 km
Semi-major
6,848.8 km
B*
9.7998e-5
RAAN
71.5605°
Arg perigee
98.9958°
Mean anomaly
261.1174°
Rev number
29,465

§ Raw data

STARLINK-21111 47390U 21005AT  26144.96869288  .00002678  00000+0  97998-4 0  99922 47390  53.1610  71.5605 0001157  98.9958 261.1174 15.31709339294656

JSON: /api/v1/satellites/47390 · /tle

For live sub-satellite position, see the globe view (requires WebGL).

§ Visibility from observer

Set your observer location to see the next 7 days of passes ≥ 10°. The values pass through the URL so the page stays shareable.

No JS? Fill the form by hand. The geolocation button needs JavaScript.